This is the latest recevied weather packets stored in our database for station/object WA1OUI. If no packets are shown the sender has not sent any weather packets the latest 1 day(s).
| Time | Temp. | Humidity | Pressure | Rain* | Wind** | Luminosity | Snow |
|---|---|---|---|---|---|---|---|
| 1778038797 | 15° C | 77% | 1008.4 hPa | 0 mm | 0.89 m/s, 344° | 0 W/m² | - |
| 1778038495 | 15° C | 77% | 1008.3 hPa | 0 mm | 0.89 m/s, 338° | 0 W/m² | - |
| 1778038191 | 15° C | 76% | 1008.3 hPa | 0 mm | 1.34 m/s, 338° | 0 W/m² | - |
| 1778037889 | 15° C | 75% | 1008.4 hPa | 0 mm | 0.89 m/s, 333° | 0 W/m² | - |
| 1778037584 | 15° C | 75% | 1008.2 hPa | 0 mm | 0.89 m/s, 351° | 0 W/m² | - |
| 1778037282 | 15.56° C | 75% | 1008.4 hPa | 0 mm | 0.89 m/s, 334° | 0 W/m² | - |
| 1778036980 | 15.56° C | 74% | 1008.4 hPa | 0 mm | 0.89 m/s, 348° | 0 W/m² | - |
| 1778036678 | 15.56° C | 74% | 1008.2 hPa | 0 mm | 0.89 m/s, 353° | 0 W/m² | - |
| 1778036374 | 15.56° C | 75% | 1008.3 hPa | 0 mm | 0.89 m/s, 336° | 0 W/m² | - |
| 1778036071 | 15.56° C | 74% | 1008.2 hPa | 0 mm | 0.89 m/s, 342° | 0 W/m² | - |
| 1778035768 | 15.56° C | 74% | 1008.2 hPa | 0 mm | 0.89 m/s, 339° | 0 W/m² | - |
| 1778035465 | 15.56° C | 74% | 1008 hPa | 0 mm | 0.89 m/s, 338° | 0 W/m² | - |
| 1778035160 | 15.56° C | 74% | 1008.1 hPa | 0 mm | 0.89 m/s, 345° | 0 W/m² | - |
| 1778034858 | 15.56° C | 74% | 1008.1 hPa | 0 mm | 0.89 m/s, 338° | 0 W/m² | - |
| 1778034554 | 15.56° C | 74% | 1008 hPa | 0 mm | 0.89 m/s, 342° | 0 W/m² | - |
| 1778034252 | 15.56° C | 74% | 1008.2 hPa | 0 mm | 0.89 m/s, 339° | 0 W/m² | - |
| 1778033950 | 15.56° C | 74% | 1008.3 hPa | 0 mm | 0.89 m/s, 357° | 0 W/m² | - |
| 1778033647 | 15.56° C | 74% | 1008 hPa | 0 mm | 0.89 m/s, 338° | 0 W/m² | - |
| 1778033343 | 15.56° C | 74% | 1008.1 hPa | 0 mm | 0.89 m/s, 334° | 0 W/m² | - |
| 1778033042 | 15.56° C | 74% | 1008.1 hPa | 0 mm | 0.89 m/s, 333° | 0 W/m² | - |
| 1778032738 | 15.56° C | 73% | 1008.1 hPa | 0 mm | 0.89 m/s, 343° | 0 W/m² | - |
| 1778032436 | 15.56° C | 74% | 1008.2 hPa | 0 mm | 0.89 m/s, 340° | 0 W/m² | - |
| 1778032133 | 15.56° C | 74% | 1008.1 hPa | 0 mm | 0.89 m/s, 342° | 0 W/m² | - |
| 1778031829 | 16.11° C | 74% | 1008 hPa | 0 mm | 0.89 m/s, 329° | 0 W/m² | - |
| 1778031526 | 16.11° C | 72% | 1008.1 hPa | 0 mm | 0.89 m/s, 334° | 0 W/m² | - |
* Rain latest hour (hover to see other rain measurements)
** Current wind speed in m/s (hover to see current wind gust speed)